FW9064 Weather Reports


Display with metric or nautical units.
time (UTC)temp
F
wind
direction
speed
MPH
gust
MPH
rain 1hr
in
rain 24hr
in
rain mn
in
humidity
%
barometer
mb
20260902073658 73 110 0.0 0.0 0.00 0.00 0.00 99 1018.0
20260902073154 73 110 0.0 0.0 0.00 0.00 0.00 99 1018.0
20260902072651 73 110 0.0 0.0 0.00 0.00 0.00 99 1017.7
20260902072147 73 110 0.0 0.0 0.00 0.00 0.00 98 1017.9
20260902071642 73 111 0.0 0.0 0.00 0.00 0.00 98 1017.8
20260902071137 73 111 0.0 0.0 0.00 0.00 0.00 98 1017.8
20260902070634 73 111 0.0 0.0 0.00 0.00 0.00 98 1018.2
20260902070133 73 112 0.0 0.0 0.00 0.00 0.00 98 1017.9
20260902065632 73 110 0.0 0.0 0.00 0.00 0.00 98 1017.9
20260902065128 73 110 0.0 0.0 0.00 0.00 0.00 98 1018.1
20260902064623 73 111 0.0 0.0 0.00 0.00 0.00 98 1018.2
20260902064118 73 112 0.0 0.0 0.00 0.00 0.00 98 1017.9
20260902063614 73 110 0.0 0.0 0.00 0.00 0.00 98 1018.1
20260902063108 73 107 0.0 0.0 0.00 0.00 0.00 98 1017.9
20260902062607 73 111 0.0 0.0 0.00 0.00 0.00 98 1017.8
20260902062103 73 109 0.0 0.0 0.00 0.00 0.00 98 1018.1
20260902061602 73 110 0.0 0.0 0.00 0.00 0.00 98 1017.9
20260902061059 74 110 0.0 0.0 0.00 0.00 0.00 98 1017.9
20260902060555 74 110 0.0 0.0 0.00 0.00 0.00 98 1018.0
20260902060051 74 110 0.0 0.0 0.00 0.00 0.00 98 1018.2
20260902055546 74 110 0.0 0.0 0.00 0.00 0.00 98 1018.0
20260902055042 74 109 0.0 0.0 0.00 0.00 0.00 98 1018.0
20260902054537 74 110 0.0 0.0 0.00 0.00 0.00 97 1018.2
20260902054032 74 110 0.0 0.0 0.00 0.00 0.00 97 1018.1
20260902053527 74 110 0.0 0.0 0.00 0.00 0.00 97 1018.3
20260902053027 74 110 0.0 0.0 0.00 0.00 0.00 97 1018.0
20260902052521 74 110 0.0 0.0 0.00 0.00 0.00 97 1018.2
20260902052017 75 109 0.0 0.0 0.00 0.00 0.00 97 1018.1
20260902051517 75 110 0.0 0.0 0.00 0.00 0.00 97 1018.2
20260902051015 75 110 0.0 0.0 0.00 0.00 0.00 97 1018.3
20260902050510 75 110 0.0 0.0 0.00 0.00 0.00 97 1018.1
20260902050008 75 110 0.0 0.0 0.00 0.00 0.00 97 1018.1
20260902045501 75 110 0.0 0.0 0.00 0.00 0.00 96 1018.0
20260902044957 75 110 0.0 0.0 0.00 0.00 0.00 96 1017.9
20260902044452 75 110 0.0 0.0 0.00 0.00 0.00 96 1018.0
20260902043948 75 110 0.0 0.0 0.00 0.00 0.00 96 1018.2
20260902043443 75 110 0.0 0.0 0.00 0.00 0.00 96 1018.2
20260902042938 75 111 0.0 0.0 0.00 0.00 0.00 96 1018.1
20260902042437 75 110 0.0 0.0 0.00 0.00 0.00 96 1018.2
20260902041933 75 110 0.0 0.0 0.00 0.00 0.00 96 1018.4
20260902041427 76 110 0.0 0.0 0.00 0.00 0.00 95 1018.3
20260902040926 76 110 0.0 0.0 0.00 0.00 0.00 95 1018.3
20260902040421 76 110 0.0 0.0 0.00 0.00 0.00 95 1018.4
20260902035920 76 110 0.0 0.0 0.00 0.00 0.00 95 1018.2
20260902035416 76 110 0.0 0.0 0.00 0.00 0.00 95 1018.5
20260902034915 76 110 0.0 0.0 0.00 0.00 0.00 95 1018.2
20260902034410 77 110 0.0 0.0 0.00 0.00 0.00 95 1018.3
20260902033908 77 110 0.0 0.0 0.00 0.00 0.00 94 1018.3
20260902033403 77 110 0.0 0.0 0.00 0.00 0.00 94 1018.4
20260902032902 77 110 0.0 0.0 0.00 0.00 0.00 94 1018.3
20260902032356 77 109 0.0 0.0 0.00 0.00 0.00 94 1018.4
20260902031851 77 111 0.0 0.0 0.00 0.00 0.00 94 1018.3
20260902031347 77 110 0.0 0.0 0.00 0.00 0.00 93 1018.4
20260902030843 77 111 0.0 0.0 0.00 0.00 0.00 93 1018.4
20260902030337 77 110 0.0 0.0 0.00 0.00 0.00 93 1018.3
20260902025836 77 111 0.0 0.0 0.00 0.00 0.00 92 1018.4
20260902025332 78 112 0.0 0.0 0.00 0.00 0.00 92 1018.3
20260902024831 78 112 0.0 0.0 0.00 0.00 0.00 92 1018.4
20260902024327 78 112 0.0 0.0 0.00 0.00 0.00 92 1018.2
20260902023822 78 113 0.0 0.0 0.00 0.00 0.00 91 1018.5
20260902023318 78 111 0.0 0.0 0.00 0.00 0.00 91 1018.3
20260902022817 78 111 0.0 0.0 0.00 0.00 0.00 91 1017.9
20260902022313 78 109 0.0 0.0 0.00 0.00 0.00 91 1018.2
20260902021809 78 110 0.0 0.0 0.00 0.00 0.00 91 1018.2
20260902021303 79 110 0.0 0.0 0.00 0.00 0.00 90 1018.4
20260902020759 79 111 0.0 0.0 0.00 0.00 0.00 90 1018.1
20260902020255 79 110 0.0 0.0 0.00 0.00 0.00 90 1017.8
20260902015749 79 112 0.0 0.0 0.00 0.00 0.00 89 1017.6
20260902015246 79 111 0.0 0.0 0.00 0.00 0.00 89 1017.8
20260902014742 80 112 0.0 0.0 0.00 0.00 0.00 88 1017.5
20260902014238 80 113 0.0 0.0 0.00 0.00 0.00 88 1017.6
20260902013736 80 110 0.0 0.0 0.00 0.00 0.00 87 1017.4
20260902013232 80 113 0.0 0.0 0.00 0.00 0.00 87 1017.6
20260902012727 80 111 0.0 0.0 0.00 0.00 0.00 87 1017.5
20260902012223 80 112 0.0 0.0 0.00 0.00 0.00 86 1017.5
20260902011718 81 113 0.0 0.0 0.00 0.00 0.00 86 1017.4
20260902011218 81 112 0.0 0.0 0.00 0.00 0.00 86 1017.5
20260902010718 81 112 0.0 0.0 0.00 0.00 0.00 85 1017.3
20260902010214 82 113 0.0 0.0 0.00 0.00 0.00 85 1017.5
20260902005712 82 113 0.0 0.0 0.00 0.00 0.00 85 1017.3
20260902005208 82 112 0.0 0.0 0.00 0.00 0.00 84 1017.3
20260902004707 82 112 0.0 0.0 0.00 0.00 0.00 83 1017.2
20260902004202 83 113 0.0 0.0 0.00 0.00 0.00 83 1017.3
20260902003658 83 112 0.0 0.0 0.00 0.00 0.00 82 1017.3
20260902003153 84 112 0.0 0.0 0.00 0.00 0.00 82 1017.1
20260902002648 84 113 0.0 0.0 0.00 0.00 0.00 81 1017.1
20260902002143 85 113 0.0 0.0 0.00 0.00 0.00 79 1017.3
20260902001638 85 113 0.0 0.0 0.00 0.00 0.00 78 1017.1
20260902001138 85 113 0.0 0.0 0.00 0.00 0.00 76 1017.2
20260902000633 86 113 0.0 0.0 0.00 0.00 0.00 75 1017.2
20260902000128 86 113 0.0 0.0 0.00 0.00 0.00 74 1017.2
20260901235628 86 113 0.0 0.0 0.00 0.00 0.00 73 1017.4
20260901235123 87 113 0.0 0.0 0.00 0.00 0.00 72 1017.0
20260901234622 87 114 0.0 0.0 0.00 0.00 0.00 72 1017.3
20260901234117 88 115 0.0 0.0 0.00 0.00 0.00 72 1017.3
20260901233613 89 113 0.0 0.0 0.00 0.00 0.00 69 1017.4
20260901233109 89 114 0.0 0.0 0.00 0.00 0.00 67 1017.5
20260901232603 90 114 0.0 0.0 0.00 0.00 0.00 65 1017.2
20260901232058 90 112 0.0 0.0 0.00 0.00 0.00 63 1017.4
20260901231554 91 114 0.0 0.0 0.00 0.00 0.00 61 1017.2
20260901231050 91 111 0.0 0.0 0.00 0.00 0.00 60 1017.2
20260901230546 91 113 0.0 0.0 0.00 0.00 0.00 58 1017.2
20260901230040 91 105 0.0 0.0 0.00 0.00 0.00 57 1017.4
20260901225535 92 111 0.0 0.0 0.00 0.00 0.00 57 1017.4
20260901225034 92 115 0.0 0.0 0.00 0.00 0.00 58 1017.2
20260901224531 92 110 0.0 1.0 0.00 0.00 0.00 57 1017.4
20260901224021 92 109 1.0 2.0 0.00 0.00 0.00 56 1017.1
20260901223517 93 95 2.0 2.0 0.00 0.00 0.00 56 1017.3
20260901223012 93 115 0.0 0.0 0.00 0.00 0.00 56 1017.4
20260901222508 94 105 0.0 1.0 0.00 0.00 0.00 54 1017.2
20260901222004 94 108 0.0 0.0 0.00 0.00 0.00 53 1017.2
20260901221459 94 114 0.0 1.0 0.00 0.00 0.00 53 1017.1
20260901220954 94 101 1.0 1.0 0.00 0.00 0.00 54 1017.1
20260901220453 94 108 0.0 0.0 0.00 0.00 0.00 54 1017.1
20260901215952 94 109 0.0 0.0 0.00 0.00 0.00 53 1017.1
20260901215451 94 109 0.0 0.0 0.00 0.00 0.00 53 1017.1
20260901214950 94 95 1.0 2.0 0.00 0.00 0.00 52 1017.3
20260901214449 94 117 0.0 1.0 0.00 0.00 0.00 52 1017.3
20260901213944 94 115 0.0 0.0 0.00 0.00 0.00 53 1017.2
20260901213438 95 113 1.0 1.0 0.00 0.00 0.00 52 1016.9
20260901212937 94 117 0.0 0.0 0.00 0.00 0.00 53 1017.4
20260901212433 94 109 0.0 1.0 0.00 0.00 0.00 52 1017.1
20260901211930 94 115 0.0 1.0 0.00 0.00 0.00 53 1017.3
20260901211425 94 107 0.0 1.0 0.00 0.00 0.00 52 1017.4
20260901210921 94 114 1.0 1.0 0.00 0.00 0.00 53 1017.2
20260901210416 94 95 1.0 2.0 0.00 0.00 0.00 53 1017.4
20260901205912 95 124 0.0 0.0 0.00 0.00 0.00 52 1017.5
20260901205407 95 85 1.0 1.0 0.00 0.00 0.00 52 1017.5
20260901204902 94 95 2.0 2.0 0.00 0.00 0.00 53 1017.7
20260901204358 95 135 0.0 0.0 0.00 0.00 0.00 53 1017.6
20260901203852 95 111 0.0 0.0 0.00 0.00 0.00 51 1017.6
20260901203346 95 122 1.0 1.0 0.00 0.00 0.00 51 1017.8
20260901202842 95 85 1.0 1.0 0.00 0.00 0.00 51 1017.8
20260901202336 95 108 0.0 1.0 0.00 0.00 0.00 53 1017.9
20260901201833 95 114 0.0 0.0 0.00 0.00 0.00 52 1018.0
20260901201332 95 67 1.0 1.0 0.00 0.00 0.00 50 1018.3
20260901200826 95 114 3.0 3.0 0.00 0.00 0.00 50 1017.9
20260901200322 95 118 1.0 1.0 0.00 0.00 0.00 52 1018.0
20260901195820 94 89 2.0 2.0 0.00 0.00 0.00 51 1018.2
20260901195313 94 122 1.0 1.0 0.00 0.00 0.00 53 1018.0
20260901194809 95 103 2.0 3.0 0.00 0.00 0.00 52 1018.3
20260901194303 96 96 1.0 1.0 0.00 0.00 0.00 51 1018.3
20260901193800 96 91 1.0 3.0 0.00 0.00 0.00 50 1018.2
20260901193258 96 118 1.0 1.0 0.00 0.00 0.00 51 1018.1
20260901192753 96 115 1.0 2.0 0.00 0.00 0.00 51 1018.2
20260901192249 96 113 0.0 0.0 0.00 0.00 0.00 51 1018.4
20260901191745 96 116 0.0 0.0 0.00 0.00 0.00 53 1018.6
20260901191240 96 111 1.0 1.0 0.00 0.00 0.00 49 1018.8
20260901190735 97 131 2.0 2.0 0.00 0.00 0.00 50 1018.7
20260901190230 96 103 3.0 3.0 0.00 0.00 0.00 51 1018.7
20260901185728 97 124 2.0 2.0 0.00 0.00 0.00 50 1018.7
20260901185227 97 147 3.0 3.0 0.00 0.00 0.00 50 1018.8
20260901184723 98 77 2.0 3.0 0.00 0.00 0.00 50 1018.9
20260901184218 97 122 0.0 1.0 0.00 0.00 0.00 51 1019.0
20260901183714 98 117 0.0 0.0 0.00 0.00 0.00 52 1019.1
20260901183213 97 111 0.0 0.0 0.00 0.00 0.00 50 1019.1
20260901182710 97 150 1.0 1.0 0.00 0.00 0.00 51 1019.1
20260901182209 98 106 0.0 0.0 0.00 0.00 0.00 52 1019.1
20260901181704 96 104 0.0 0.0 0.00 0.00 0.00 50 1019.0
20260901181203 96 160 1.0 2.0 0.00 0.00 0.00 53 1019.1
20260901180657 95 112 0.0 0.0 0.00 0.00 0.00 53 1019.2
20260901180151 96 112 2.0 2.0 0.00 0.00 0.00 53 1019.3
20260901175651 98 114 0.0 0.0 0.00 0.00 0.00 50 1019.5
20260901175151 96 114 0.0 0.0 0.00 0.00 0.00 53 1019.4
20260901174646 96 118 1.0 1.0 0.00 0.00 0.00 51 1019.4
20260901174142 96 84 1.0 2.0 0.00 0.00 0.00 51 1019.4
20260901173637 97 110 1.0 1.0 0.00 0.00 0.00 51 1019.5
20260901173132 96 117 0.0 0.0 0.00 0.00 0.00 52 1019.5
20260901172628 96 74 2.0 3.0 0.00 0.00 0.00 51 1019.6
20260901172126 96 122 2.0 2.0 0.00 0.00 0.00 50 1019.5
20260901171620 97 142 1.0 2.0 0.00 0.00 0.00 51 1019.6
20260901171114 96 136 0.0 0.0 0.00 0.00 0.00 50 1019.7
20260901170613 96 115 0.0 0.0 0.00 0.00 0.00 51 1019.7
20260901170108 96 119 1.0 1.0 0.00 0.00 0.00 53 1019.9
20260901165607 96 109 1.0 1.0 0.00 0.00 0.00 52 1019.8
20260901165103 97 110 2.0 2.0 0.00 0.00 0.00 51 1019.9
20260901164558 96 123 0.0 0.0 0.00 0.00 0.00 53 1019.5
20260901164053 96 103 1.0 1.0 0.00 0.00 0.00 56 1019.8
20260901163549 96 134 0.0 0.0 0.00 0.00 0.00 56 1020.3
20260901163048 95 208 1.0 3.0 0.00 0.00 0.00 52 1020.1
20260901162543 95 109 1.0 2.0 0.00 0.00 0.00 54 1020.1
20260901162042 95 115 1.0 1.0 0.00 0.00 0.00 59 1020.1
20260901161541 95 73 1.0 2.0 0.00 0.00 0.00 57 1020.2
20260901161041 94 113 0.0 1.0 0.00 0.00 0.00 58 1020.3
20260901160538 94 168 1.0 1.0 0.00 0.00 0.00 60 1020.0
20260901160033 94 104 0.0 0.0 0.00 0.00 0.00 61 1020.3
20260901155531 93 112 0.0 1.0 0.00 0.00 0.00 62 1020.3
20260901155028 95 142 1.0 1.0 0.00 0.00 0.00 61 1020.4
20260901154527 94 137 0.0 1.0 0.00 0.00 0.00 62 1020.3
20260901154022 94 90 2.0 2.0 0.00 0.00 0.00 62 1020.4
20260901153517 94 114 0.0 0.0 0.00 0.00 0.00 66 1020.3
20260901153016 93 110 1.0 1.0 0.00 0.00 0.00 66 1020.5
20260901152511 94 109 0.0 0.0 0.00 0.00 0.00 65 1020.4
20260901152010 92 113 0.0 0.0 0.00 0.00 0.00 65 1020.5
20260901151506 93 114 0.0 1.0 0.00 0.00 0.00 65 1020.5
20260901151005 92 113 0.0 0.0 0.00 0.00 0.00 65 1020.7
20260901150503 92 107 0.0 0.0 0.00 0.00 0.00 66 1020.6
20260901150001 92 114 0.0 0.0 0.00 0.00 0.00 67 1020.6
20260901145455 91 109 0.0 0.0 0.00 0.00 0.00 66 1020.4
20260901144954 90 97 0.0 0.0 0.00 0.00 0.00 68 1020.4
20260901144450 90 111 0.0 1.0 0.00 0.00 0.00 68 1020.6
20260901143946 89 88 2.0 2.0 0.00 0.00 0.00 70 1020.4
20260901143441 89 114 0.0 1.0 0.00 0.00 0.00 72 1020.5
20260901142938 87 120 0.0 0.0 0.00 0.00 0.00 72 1020.6
20260901142432 87 105 0.0 0.0 0.00 0.00 0.00 73 1020.7
20260901141927 87 120 0.0 0.0 0.00 0.00 0.00 74 1020.6
20260901141421 86 123 0.0 0.0 0.00 0.00 0.00 75 1020.7
20260901140922 86 112 0.0 0.0 0.00 0.00 0.00 75 1020.7
20260901140420 86 90 0.0 0.0 0.00 0.00 0.00 73 1020.5
20260901135914 85 118 0.0 0.0 0.00 0.00 0.00 74 1020.5
20260901135409 84 111 0.0 0.0 0.00 0.00 0.00 77 1020.5
20260901134905 84 117 0.0 0.0 0.00 0.00 0.00 77 1020.5
20260901134401 82 111 0.0 0.0 0.00 0.00 0.00 82 1020.6
20260901133900 81 110 0.0 0.0 0.00 0.00 0.00 85 1020.5
20260901133400 78 136 0.0 0.0 0.00 0.00 0.00 88 1020.5
20260901132859 76 107 0.0 0.0 0.00 0.00 0.00 96 1020.8
20260901132354 75 109 0.0 0.0 0.00 0.00 0.00 99 1020.9
20260901131853 75 111 0.0 0.0 0.00 0.00 0.00 99 1020.9
20260901131352 74 111 0.0 0.0 0.00 0.00 0.00 99 1020.6
20260901130848 74 110 0.0 0.0 0.00 0.00 0.00 99 1020.8
20260901130342 74 112 0.0 0.0 0.00 0.00 0.00 99 1020.5
20260901125840 73 112 0.0 0.0 0.00 0.00 0.00 99 1020.6
20260901125340 73 112 0.0 0.0 0.00 0.00 0.00 99 1020.6
20260901124835 72 115 0.0 0.0 0.00 0.00 0.00 99 1020.5
20260901124330 72 114 0.0 0.0 0.00 0.00 0.00 99 1020.7
20260901123829 72 112 0.0 0.0 0.00 0.00 0.00 99 1020.4
20260901123325 72 112 0.0 0.0 0.00 0.00 0.00 99 1020.2
20260901122823 71 112 0.0 0.0 0.00 0.00 0.00 99 1020.3
20260901122318 71 114 0.0 0.0 0.00 0.00 0.00 99 1020.3
20260901121817 71 112 0.0 0.0 0.00 0.00 0.00 99 1020.3
20260901121312 71 110 0.0 0.0 0.00 0.00 0.00 99 1020.1
20260901120807 70 110 0.0 0.0 0.00 0.00 0.00 99 1020.2
20260901120301 70 111 0.0 0.0 0.00 0.00 0.00 99 1020.0
20260901115757 70 112 0.0 0.0 0.00 0.00 0.00 99 1020.3
20260901115252 70 111 0.0 0.0 0.00 0.00 0.00 99 1019.9
20260901114749 70 111 0.0 0.0 0.00 0.00 0.00 99 1019.9
20260901114244 70 111 0.0 0.0 0.00 0.00 0.00 99 1019.8
20260901113742 70 111 0.0 0.0 0.00 0.00 0.00 99 1019.8
20260901113237 69 110 0.0 0.0 0.00 0.00 0.00 99 1019.7
20260901112732 69 111 0.0 0.0 0.00 0.00 0.00 99 1019.7
20260901112231 70 111 0.0 0.0 0.00 0.00 0.00 99 1019.5
20260901111727 69 111 0.0 0.0 0.00 0.00 0.00 99 1019.4
20260901111226 69 111 0.0 0.0 0.00 0.00 0.00 99 1019.5
20260901110720 69 111 0.0 0.0 0.00 0.00 0.00 99 1019.4
20260901110215 70 112 0.0 0.0 0.00 0.00 0.00 99 1019.4
20260901105712 70 112 0.0 0.0 0.00 0.00 0.00 99 1019.5
20260901105211 70 112 0.0 0.0 0.00 0.00 0.00 99 1019.4
20260901104707 70 112 0.0 0.0 0.00 0.00 0.00 99 1019.3
20260901104203 70 112 0.0 0.0 0.00 0.00 0.00 99 1019.4
20260901103702 70 112 0.0 0.0 0.00 0.00 0.00 99 1019.2
20260901103157 70 111 0.0 0.0 0.00 0.00 0.00 99 1019.3
20260901102652 70 112 0.0 0.0 0.00 0.00 0.00 99 1019.0
20260901102151 70 110 0.0 0.0 0.00 0.00 0.00 99 1019.3
20260901101648 70 110 0.0 0.0 0.00 0.00 0.00 99 1019.1
20260901101146 70 110 0.0 0.0 0.00 0.00 0.00 99 1019.1
20260901100641 70 110 0.0 0.0 0.00 0.00 0.00 99 1019.0
20260901100136 70 109 0.0 0.0 0.00 0.00 0.00 99 1019.1
20260901095634 70 110 0.0 0.0 0.00 0.00 0.00 99 1019.0
20260901095132 70 111 0.0 0.0 0.00 0.00 0.00 99 1019.3
20260901094626 70 110 0.0 0.0 0.00 0.00 0.00 99 1019.3
20260901094121 71 111 0.0 0.0 0.00 0.00 0.00 99 1019.2
20260901093616 71 110 0.0 0.0 0.00 0.00 0.00 99 1019.2
20260901093115 71 112 0.0 0.0 0.00 0.00 0.00 99 1019.0
20260901092611 71 110 0.0 0.0 0.00 0.00 0.00 99 1019.1
20260901092107 71 110 0.0 0.0 0.00 0.00 0.00 99 1019.0
20260901091603 71 111 0.0 0.0 0.00 0.00 0.00 99 1018.9
20260901091058 71 111 0.0 0.0 0.00 0.00 0.00 99 1018.8
20260901090557 71 110 0.0 0.0 0.00 0.00 0.00 99 1019.1
20260901090053 71 112 0.0 0.0 0.00 0.00 0.00 99 1018.8
20260901085548 71 111 0.0 0.0 0.00 0.00 0.00 99 1018.7
20260901085044 71 108 0.0 0.0 0.00 0.00 0.00 99 1019.0
20260901084540 71 110 0.0 0.0 0.00 0.00 0.00 99 1018.8
20260901084037 71 110 0.0 0.0 0.00 0.00 0.00 99 1019.1
20260901083536 71 110 0.0 0.0 0.00 0.00 0.00 99 1018.9
20260901083034 71 111 0.0 0.0 0.00 0.00 0.00 99 1018.7
20260901082529 71 111 0.0 0.0 0.00 0.00 0.00 99 1018.8
20260901082025 71 115 0.0 0.0 0.00 0.00 0.00 99 1019.0
20260901081520 71 110 0.0 0.0 0.00 0.00 0.00 99 1018.8
20260901081015 71 109 0.0 0.0 0.00 0.00 0.00 99 1018.6
20260901080514 71 112 0.0 0.0 0.00 0.00 0.00 99 1018.7
20260901080014 71 112 0.0 0.0 0.00 0.00 0.00 99 1018.2
20260901075510 71 111 0.0 0.0 0.00 0.00 0.00 99 1018.5
20260901075008 71 111 0.0 0.0 0.00 0.00 0.00 99 1018.6
20260901074503 71 111 0.0 0.0 0.00 0.00 0.00 99 1018.5
20260901073958 72 112 0.0 0.0 0.00 0.00 0.00 99 1018.4